EW2804 Weather Reports


time (UTC)temp
C
wind
direction
speed
KPH
gust
KPH
rain 1hr
cm
rain 24hr
cm
rain mn
cm
humidity
%
barometer
mb
20260508172301 22 229 1.6 8.0 0.00 0.36 0.36 67 1010.9
20260508171306 22 163 1.6 6.4 0.00 0.36 0.36 69 1011.1
20260508170236 22 133 1.6 9.7 0.00 0.36 0.36 70 1011.3
20260508165206 21 262 1.6 9.7 0.00 0.36 0.36 70 1011.6
20260508164216 21 168 1.6 9.7 0.00 0.36 0.36 72 1011.9
20260508162108 19 128 0.0 9.7 0.00 0.36 0.36 80 1012.3
20260508161103 18 134 1.6 8.0 0.00 0.36 0.36 82 1012.4
20260508160059 18 120 0.0 3.2 0.00 0.36 0.36 84 1012.5
20260508155052 18 0 0.0 3.2 0.00 0.36 0.36 84 1012.7
20260508154102 18 0 0.0 0.0 0.00 0.36 0.36 84 1012.7
20260508153027 18 120 0.0 0.0 0.10 0.36 0.36 83 1012.8
20260508152024 17 121 0.0 0.0 0.23 0.36 0.36 82 1012.9
20260508145908 18 120 0.0 4.8 0.00 0.13 0.13 78 1013.0
20260508144906 18 148 0.0 1.6 0.00 0.13 0.13 77 1013.0
20260508143927 18 166 1.6 8.0 0.00 0.13 0.13 76 1013.3
20260508142917 18 203 1.6 6.4 0.00 0.13 0.13 79 1013.2
20260508141855 17 128 0.0 3.2 0.00 0.13 0.13 81 1013.3
20260508140846 17 144 0.0 1.6 0.00 0.13 0.13 82 1013.7
20260508134727 17 0 0.0 4.8 0.00 0.13 0.13 86 1013.3
20260508133745 16 0 0.0 1.6 0.00 0.13 0.13 87 1013.3
20260508132747 16 116 0.0 1.6 0.00 0.13 0.13 88 1013.1
20260508130530 16 138 0.0 0.0 0.00 0.13 0.13 88 1013.3
20260508125544 16 138 0.0 0.0 0.00 0.13 0.13 88 1013.2
20260508123421 16 139 0.0 0.0 0.00 0.13 0.13 88 1013.3
20260508122410 15 138 0.0 1.6 0.00 0.13 0.13 87 1013.4
20260508115049 15 138 0.0 0.0 0.00 0.13 0.13 87 1013.6
20260508114019 15 138 0.0 0.0 0.00 0.13 0.13 86 1013.5
20260508113033 15 138 0.0 0.0 0.00 0.13 0.13 86 1013.4
20260508112020 15 138 0.0 1.6 0.00 0.13 0.13 86 1013.2
20260508110947 15 138 0.0 11.3 0.00 0.13 0.13 86 1013.3
20260508105927 15 138 0.0 4.8 0.00 0.13 0.13 86 1013.0
20260508104915 16 101 0.0 11.3 0.00 0.13 0.13 86 1012.8
20260508103843 16 173 0.0 1.6 0.00 0.13 0.13 86 1012.8
20260508095422 16 173 0.0 0.0 0.00 0.03 0.03 84 1013.2
20260508094356 16 173 0.0 0.0 0.00 0.03 0.03 84 1012.6
20260508092218 16 173 0.0 0.0 0.00 0.03 0.03 83 1012.5
20260508091232 16 173 0.0 0.0 0.00 0.03 0.03 83 1012.6
20260508090228 16 173 0.0 0.0 0.00 0.00 0.00 83 1012.8
20260508085208 16 173 0.0 0.0 0.00 0.00 0.00 83 1012.5
20260508084157 16 173 0.0 0.0 0.00 0.00 0.00 82 1012.8
20260508082105 16 259 0.0 4.8 0.00 0.00 0.00 81 1013.0
20260508081038 16 122 0.0 4.8 0.00 0.00 0.00 80 1013.2
20260508080039 16 237 0.0 4.8 0.00 0.00 0.00 79 1014.0
20260508075004 16 153 0.0 3.2 0.00 0.00 0.00 79 1013.7
20260508073948 16 260 0.0 0.0 0.00 0.00 0.00 80 1013.9
20260508072951 16 260 0.0 0.0 0.00 0.00 0.00 80 1014.0
20260508071917 16 260 0.0 0.0 0.00 0.00 0.00 81 1014.8
20260508070858 16 260 0.0 0.0 0.00 0.00 0.00 81 1014.5
20260508065904 15 261 0.0 0.0 0.00 0.00 0.00 81 1014.3
20260508064851 15 261 0.0 0.0 0.00 0.00 0.00 80 1014.1
20260508063821 15 261 0.0 0.0 0.00 0.00 0.00 81 1014.4
20260508062840 15 261 0.0 0.0 0.00 0.00 0.00 80 1014.6
20260508061856 15 261 0.0 0.0 0.00 0.00 0.00 79 1014.6
20260508060903 15 261 0.0 0.0 0.00 0.00 0.00 80 1014.8
20260508055838 15 261 0.0 0.0 0.00 0.00 0.00 80 1014.8
20260508054848 15 261 0.0 0.0 0.00 0.00 0.00 79 1014.6
20260508052708 15 261 0.0 0.0 0.00 0.00 0.00 78 1014.4
20260508051729 16 260 0.0 0.0 0.00 0.00 0.00 78 1014.5
20260508050746 16 260 0.0 0.0 0.00 0.00 0.00 78 1014.5
20260508045753 16 260 0.0 0.0 0.00 0.00 0.00 78 1014.6
20260508044811 16 260 0.0 0.0 0.00 0.00 0.00 78 1014.7
20260508043801 15 260 0.0 0.0 0.00 0.00 0.00 78 1014.7
20260508042821 15 260 0.0 0.0 0.00 0.00 0.00 78 1014.5
20260508041835 15 261 0.0 0.0 0.00 0.00 0.00 78 1014.5
20260508040857 15 261 0.0 0.0 0.00 0.00 0.00 77 1014.6
20260508034743 15 261 0.0 0.0 0.00 0.00 0.00 76 1014.5
20260508033750 16 261 0.0 0.0 0.00 0.00 0.00 75 1014.5
20260508032805 16 261 0.0 0.0 0.00 0.00 0.00 74 1014.5
20260508031748 16 261 0.0 0.0 0.00 0.00 0.00 72 1014.3
20260508030725 16 260 0.0 0.0 0.00 0.00 0.00 71 1014.3
20260508024529 17 260 0.0 0.0 0.00 0.00 0.00 69 1014.0
20260508023451 17 261 0.0 0.0 0.00 0.00 0.00 67 1013.9
20260508022424 18 261 0.0 0.0 0.00 0.00 0.00 65 1013.9
20260508021437 18 261 0.0 0.0 0.00 0.00 0.00 64 1013.7
20260508015310 18 261 0.0 0.0 0.00 0.00 0.00 62 1013.6
20260508014233 19 261 0.0 0.0 0.00 0.00 0.00 61 1013.4
20260508013203 19 261 0.0 0.0 0.00 0.00 0.00 60 1013.5
20260508012225 19 261 0.0 1.6 0.00 0.00 0.00 60 1013.5
20260508011213 20 261 0.0 4.8 0.00 0.00 0.00 59 1013.4
20260508010138 20 132 0.0 4.8 0.00 0.00 0.00 58 1013.6
20260508005121 20 119 0.0 3.2 0.00 0.00 0.00 58 1013.5
20260508004103 21 136 0.0 6.4 0.00 0.00 0.00 56 1013.1
20260508001853 21 40 0.0 0.0 0.00 0.00 0.00 58 1013.5
20260508000859 21 39 0.0 0.0 0.00 0.00 0.00 57 1013.5
20260507235843 22 39 0.0 0.0 0.00 0.00 0.00 53 1013.7
20260507234836 22 39 0.0 1.6 0.00 0.00 0.00 50 1013.6
20260507232726 22 38 0.0 3.2 0.00 0.00 0.00 45 1013.6
20260507231651 22 39 0.0 0.0 0.00 0.00 0.00 50 1013.7
20260507225504 22 39 0.0 1.6 0.00 0.00 0.00 45 1013.9
20260507224453 22 39 0.0 6.4 0.00 0.00 0.00 46 1014.0
20260507223511 22 51 0.0 4.8 0.00 0.00 0.00 48 1014.1
20260507222502 22 50 1.6 6.4 0.00 0.00 0.00 46 1014.2
20260507221433 22 30 1.6 6.4 0.00 0.00 0.00 49 1014.3
20260507220408 22 349 1.6 6.4 0.00 0.00 0.00 46 1014.3
20260507214223 22 38 0.0 0.0 0.00 0.00 0.00 46 1014.5
20260507213223 22 38 0.0 8.0 0.00 0.00 0.00 45 1014.6
20260507210008 22 276 1.6 8.0 0.00 0.00 0.00 47 1015.0
20260507205024 23 69 1.6 6.4 0.00 0.00 0.00 45 1014.9
20260507204019 22 331 1.6 6.4 0.00 0.00 0.00 45 1014.9
20260507203006 22 355 3.2 14.5 0.00 0.00 0.00 47 1015.2
20260507202018 22 15 3.2 14.5 0.00 0.00 0.00 46 1015.2
20260507201038 22 57 3.2 12.9 0.00 0.00 0.00 46 1015.4
20260507200005 22 40 1.6 16.1 0.00 0.00 0.00 45 1015.6
20260507195010 22 5 3.2 16.1 0.00 0.00 0.00 47 1015.7
20260507194020 22 47 4.8 14.5 0.00 0.00 0.00 45 1015.8
20260507192946 22 351 3.2 19.3 0.00 0.00 0.00 46 1015.8
20260507191929 22 355 4.8 19.3 0.00 0.00 0.00 50 1016.1
20260507190925 22 49 3.2 9.7 0.00 0.00 0.00 44 1016.4
20260507185852 21 36 3.2 22.5 0.00 0.00 0.00 45 1016.5
20260507184825 21 49 3.2 22.5 0.00 0.00 0.00 45 1016.4
20260507183749 21 48 3.2 17.7 0.00 0.00 0.00 46 1016.5
20260507182747 21 57 3.2 17.7 0.00 0.00 0.00 44 1016.6
20260507181711 21 344 3.2 11.3 0.00 0.00 0.00 51 1016.8
20260507180640 21 49 3.2 14.5 0.00 0.00 0.00 51 1017.0
20260507175653 20 46 3.2 14.5 0.00 0.00 0.00 51 1017.2
20260507174624 20 36 4.8 14.5 0.00 0.00 0.00 49 1017.5